Home   Weather   Wainwright   Past weeks

Flag for USA Past Weather in Wainwright, Alaska, USA — Yesterday and Last 2 Weeks

Now
39 °F

Low clouds.


Feels Like: 29 °F
Forecast: 41 / 48 °F
Wind: 20 mph from Southeast

Location: Wainwright Distant Early Warning

Current Time: Aug 30, 2016 at 7:09:21 AM

Latest Report: Aug 30, 2016 at 5:53 AM


Visibility: 10 mi

Pressure: 30.33 "Hg

Humidity: 100%

Dew Point: 39 °F

Location of WainwrightLocation

Past Weather in Wainwright — Graph

°F

Wainwright Temperature Yesterday

Maximum temperature yesterday: 46 °F (at 5:53 PM)
Minimum temperature yesterday: 33 °F (at 12:53 AM)
Average temperature yesterday: 39 °F

High & Low Weather Summary for the Past Weeks

 TemperatureHumidityPressure
High57 °F (Aug 27, 1:53 PM)100% (Aug 18, 9:53 AM)30.68 "Hg (Aug 18, 9:53 AM)
Low32 °F (Aug 15, 5:53 AM)59% (Aug 26, 11:53 AM)29.59 "Hg (Aug 18, 10:53 AM)
Average41 °F88%29.99 "Hg
* Reported Aug 15 5:53 AM — Aug 30 5:53 AM, Wainwright, Weather by CustomWeather, © 2016

Note: Actual official high and low records may vary slightly from our data, if they occured in-between our weather recording intervals... More about our weather records

Advertising

Wainwright Weather History for the Previous 24 Hours

Scroll right to see more
 ConditionsComfort  
Time TempWeatherWind HumidityBarometerVisibility
5:53 AM
Tue, Aug 30
39 °FLow clouds.20 mph100%30.33 "Hg10 mi
4:53 AM39 °FLow clouds.21 mph100%30.34 "Hg10 mi
3:53 AM40 °FLow clouds.18 mph97%30.36 "Hg10 mi
2:53 AM40 °FLow clouds.23 mph97%30.35 "Hg10 mi
1:53 AM40 °FLow clouds.25 mph93%30.36 "Hg10 mi
1:01 AM39 °FPassing clouds.20 mph96%30.38 "Hg10 mi
12:53 AM39 °FPassing clouds.26 mph96%30.38 "Hg10 mi
11:53 PM
Mon, Aug 29
40 °FClear.21 mph93%30.39 "Hg10 mi
10:53 PM41 °FSunny.23 mph93%30.40 "Hg10 mi
9:53 PM41 °FSunny.23 mph93%30.42 "Hg10 mi
8:53 PM43 °FSunny.21 mph86%30.43 "Hg10 mi
7:53 PM45 °FSunny.24 mph80%30.44 "Hg10 mi
6:53 PM46 °FSunny.25 mph79%30.45 "Hg10 mi
5:53 PM46 °FSunny.23 mph77%30.48 "Hg10 mi
4:53 PM45 °FPartly sunny.24 mph80%30.49 "Hg10 mi
3:53 PM43 °FOvercast.22 mph82%30.52 "Hg10 mi
3:01 PM42 °FPartly sunny.22 mph85%30.53 "Hg10 mi
1:53 PM41 °FOvercast.21 mph86%30.55 "Hg10 mi
12:53 PM40 °FLow clouds.21 mph89%30.57 "Hg10 mi
11:53 AM38 °FLow clouds.20 mph97%30.60 "Hg10 mi
10:53 AM36 °FLow clouds.17 mph97%30.61 "Hg10 mi
9:53 AM36 °FLow clouds.21 mph97%30.62 "Hg10 mi
8:53 AM35 °FLow clouds.16 mph96%30.63 "Hg9 mi
7:53 AM36 °FFog.17 mph97%30.65 "Hg4 mi
Weather by CustomWeather, © 2016

See weather overviewHow to use our weather pages